Time,TemperatureF,DewpointF,PressureIn,WindDirection,WindDirectionDegrees,WindSpeedMPH,WindSpeedGustMPH,Humidity,HourlyPrecipIn,Conditions,Clouds,dailyrainin,SolarRadiationWatts/m^2,SoftwareType,DateUTC
2013-03-09 00:01:00,42.8,27.7,30.27,NNE,20,0.0,0.0,55,0.00,CLR,,0.00,0.0,WeatherDisplay:10.37,2013-03-09 05:01:00,
2013-03-09 00:06:00,42.5,27.9,30.27,NNE,20,0.0,0.0,56,0.00,CLR,,0.00,0.0,WeatherDisplay:10.37,2013-03-09 05:06:00,
2013-03-09 00:16:00,42.3,27.7,30.27,NE,37,0.0,1.0,56,0.00,CLR,,0.00,0.0,WeatherDisplay:10.37,2013-03-09 05:16:00,
2013-03-09 00:26:00,42.1,27.9,30.27,NE,39,0.0,0.0,57,0.00,CLR,,0.00,0.0,WeatherDisplay:10.37,2013-03-09 05:26:00,
2013-03-09 00:31:00,41.9,27.8,30.28,NE,39,0.0,0.0,57,0.00,CLR,,0.00,0.0,WeatherDisplay:10.37,2013-03-09 05:31:00,
2013-03-09 00:36:00,41.8,28.1,30.28,NE,39,0.0,0.0,58,0.00,CLR,,0.00,0.0,WeatherDisplay:10.37,2013-03-09 05:36:00,
2013-03-09 00:41:00,41.5,27.8,30.28,NE,39,0.0,0.0,58,0.00,CLR,,0.00,0.0,WeatherDisplay:10.37,2013-03-09 05:41:00,
2013-03-09 00:46:00,41.3,27.6,30.28,NE,39,0.0,0.0,58,0.00,CLR,,0.00,0.0,WeatherDisplay:10.37,2013-03-09 05:46:00,
2013-03-09 00:51:00,41.2,27.5,30.27,NE,39,0.0,0.0,58,0.00,CLR,,0.00,0.0,WeatherDisplay:10.37,2013-03-09 05:51:00,
2013-03-09 00:56:00,41.1,27.9,30.27,NE,39,0.0,0.0,59,0.00,CLR,,0.00,0.0,WeatherDisplay:10.37,2013-03-09 05:56:00,
2013-03-09 01:01:00,40.9,27.7,30.27,NE,39,0.0,0.0,59,0.00,CLR,,0.00,0.0,WeatherDisplay:10.37,2013-03-09 06:01:00,
2013-03-09 01:06:00,40.9,27.7,30.27,NE,39,0.0,0.0,59,0.00,CLR,,0.00,0.0,WeatherDisplay:10.37,2013-03-09 06:06:00,
2013-03-09 01:11:00,40.8,28.0,30.28,NE,39,0.0,0.0,60,0.00,CLR,,0.00,0.0,WeatherDisplay:10.37,2013-03-09 06:11:00,
2013-03-09 01:16:00,40.6,27.8,30.28,NE,39,0.0,0.0,60,0.00,CLR,,0.00,0.0,WeatherDisplay:10.37,2013-03-09 06:16:00,
2013-03-09 01:21:00,40.6,27.8,30.28,NE,39,0.0,0.0,60,0.00,CLR,,0.00,0.0,WeatherDisplay:10.37,2013-03-09 06:21:00,
2013-03-09 01:26:00,40.5,28.1,30.28,NE,39,0.0,0.0,61,0.00,CLR,,0.00,0.0,WeatherDisplay:10.37,2013-03-09 06:26:00,
2013-03-09 01:31:00,40.3,27.9,30.28,NE,39,0.0,0.0,61,0.00,CLR,,0.00,0.0,WeatherDisplay:10.37,2013-03-09 06:31:00,
2013-03-09 01:36:00,40.1,27.7,30.28,NE,39,0.0,0.0,61,0.00,CLR,,0.00,0.0,WeatherDisplay:10.37,2013-03-09 06:36:00,
2013-03-09 01:41:00,39.9,28.3,30.28,NE,39,0.0,0.0,63,0.00,CLR,,0.00,0.0,WeatherDisplay:10.37,2013-03-09 06:41:00,
2013-03-09 01:46:00,39.6,27.6,30.27,NE,38,0.0,2.0,62,0.00,CLR,,0.00,0.0,WeatherDisplay:10.37,2013-03-09 06:46:00,
2013-03-09 01:51:00,39.5,27.5,30.27,NE,38,0.0,1.0,62,0.00,CLR,,0.00,0.0,WeatherDisplay:10.37,2013-03-09 06:51:00,
2013-03-09 01:56:00,39.3,27.4,30.27,NE,38,0.0,2.0,62,0.00,CLR,,0.00,0.0,WeatherDisplay:10.37,2013-03-09 06:56:00,
2013-03-09 02:01:00,39.3,27.4,30.27,NE,38,0.0,0.0,62,0.00,CLR,,0.00,0.0,WeatherDisplay:10.37,2013-03-09 07:01:00,
2013-03-09 02:11:00,39.2,26.9,30.27,NE,35,1.0,2.0,61,0.00,CLR,,0.00,0.0,WeatherDisplay:10.37,2013-03-09 07:11:00,
2013-03-09 02:16:00,39.2,26.9,30.26,NNE,33,0.0,2.0,61,0.00,CLR,,0.00,0.0,WeatherDisplay:10.37,2013-03-09 07:16:00,
2013-03-09 02:21:00,39.3,27.0,30.26,NNE,32,0.0,2.0,61,0.00,CLR,,0.00,0.0,WeatherDisplay:10.37,2013-03-09 07:21:00,
2013-03-09 02:26:00,39.3,26.9,30.26,NNE,32,0.0,2.0,61,0.00,CLR,,0.00,0.0,WeatherDisplay:10.37,2013-03-09 07:26:00,
2013-03-09 02:31:00,39.2,26.9,30.26,NNE,31,1.0,2.0,61,0.00,CLR,,0.00,0.0,WeatherDisplay:10.37,2013-03-09 07:31:00,
2013-03-09 02:36:00,39.2,26.9,30.26,NNE,31,0.0,2.0,61,0.00,CLR,,0.00,0.0,WeatherDisplay:10.37,2013-03-09 07:36:00,
2013-03-09 02:41:00,39.2,26.9,30.25,NNE,31,0.0,2.0,61,0.00,CLR,,0.00,0.0,WeatherDisplay:10.37,2013-03-09 07:41:00,
2013-03-09 02:46:00,39.1,27.2,30.25,NNE,30,1.0,2.0,62,0.00,CLR,,0.00,0.0,WeatherDisplay:10.37,2013-03-09 07:46:00,
2013-03-09 02:51:00,39.1,26.8,30.25,NNE,22,1.0,5.0,61,0.00,CLR,,0.00,0.0,WeatherDisplay:10.37,2013-03-09 07:51:00,
2013-03-09 02:56:00,39.1,26.7,30.24,North,3,1.0,2.0,61,0.00,CLR,,0.00,0.0,WeatherDisplay:10.37,2013-03-09 07:56:00,
2013-03-09 03:01:00,38.9,26.6,30.24,NNW,348,0.0,2.0,61,0.00,CLR,,0.00,0.0,WeatherDisplay:10.37,2013-03-09 08:01:00,
2013-03-09 03:06:00,38.9,27.0,30.24,North,353,0.0,2.0,62,0.00,CLR,,0.00,0.0,WeatherDisplay:10.37,2013-03-09 08:06:00,
2013-03-09 03:11:00,38.8,26.9,30.24,North,360,0.0,1.0,62,0.00,CLR,,0.00,0.0,WeatherDisplay:10.37,2013-03-09 08:11:00,
2013-03-09 03:16:00,38.6,26.7,30.24,North,5,1.0,3.0,62,0.00,CLR,,0.00,0.0,WeatherDisplay:10.37,2013-03-09 08:16:00,
2013-03-09 03:21:00,38.6,26.7,30.23,North,359,1.0,2.0,62,0.00,CLR,,0.00,0.0,WeatherDisplay:10.37,2013-03-09 08:21:00,
2013-03-09 03:26:00,38.5,26.6,30.23,North,352,0.0,1.0,62,0.00,CLR,,0.00,0.0,WeatherDisplay:10.37,2013-03-09 08:26:00,
2013-03-09 03:31:00,38.5,26.6,30.23,North,351,0.0,2.0,62,0.00,CLR,,0.00,0.0,WeatherDisplay:10.37,2013-03-09 08:31:00,
2013-03-09 03:36:00,38.5,27.0,30.23,North,351,0.0,2.0,63,0.00,CLR,,0.00,0.0,WeatherDisplay:10.37,2013-03-09 08:36:00,
2013-03-09 03:41:00,38.3,26.8,30.23,North,351,0.0,1.0,63,0.00,CLR,,0.00,0.0,WeatherDisplay:10.37,2013-03-09 08:41:00,
2013-03-09 03:46:00,38.3,26.8,30.23,North,355,0.0,3.0,63,0.00,CLR,,0.00,0.0,WeatherDisplay:10.37,2013-03-09 08:46:00,
2013-03-09 03:51:00,38.2,26.7,30.24,North,1,0.0,1.0,63,0.00,CLR,,0.00,0.0,WeatherDisplay:10.37,2013-03-09 08:51:00,
2013-03-09 03:56:00,38.2,26.7,30.25,North,3,0.0,2.0,63,0.00,CLR,,0.00,0.0,WeatherDisplay:10.37,2013-03-09 08:56:00,
2013-03-09 04:01:00,38.2,27.1,30.25,North,1,0.0,1.0,64,0.00,CLR,,0.00,0.0,WeatherDisplay:10.37,2013-03-09 09:01:00,
2013-03-09 04:06:00,38.2,27.1,30.25,North,360,0.0,0.0,64,0.00,CLR,,0.00,0.0,WeatherDisplay:10.37,2013-03-09 09:06:00,
2013-03-09 04:11:00,38.0,26.9,30.25,North,360,0.0,0.0,64,0.00,CLR,,0.00,0.0,WeatherDisplay:10.37,2013-03-09 09:11:00,
2013-03-09 04:16:00,38.0,26.9,30.25,North,360,0.0,0.0,64,0.00,CLR,,0.00,0.0,WeatherDisplay:10.37,2013-03-09 09:16:00,
2013-03-09 04:21:00,38.0,26.9,30.26,North,360,0.0,0.0,64,0.00,CLR,,0.00,0.0,WeatherDisplay:10.37,2013-03-09 09:21:00,
2013-03-09 04:26:00,37.9,27.2,30.26,North,360,0.0,0.0,65,0.00,CLR,,0.00,0.0,WeatherDisplay:10.37,2013-03-09 09:26:00,
2013-03-09 04:31:00,37.8,27.1,30.26,North,360,0.0,0.0,65,0.00,CLR,,0.00,0.0,WeatherDisplay:10.37,2013-03-09 09:31:00,
2013-03-09 04:36:00,37.6,26.9,30.25,North,360,0.0,0.0,65,0.00,CLR,,0.00,0.0,WeatherDisplay:10.37,2013-03-09 09:36:00,
2013-03-09 04:41:00,37.5,26.8,30.25,North,1,0.0,0.0,65,0.00,CLR,,0.00,0.0,WeatherDisplay:10.37,2013-03-09 09:41:00,
2013-03-09 04:46:00,37.5,26.8,30.25,North,7,0.0,2.0,65,0.00,CLR,,0.00,0.0,WeatherDisplay:10.37,2013-03-09 09:46:00,
2013-03-09 04:51:00,37.5,26.8,30.25,North,0,0.0,3.0,65,0.00,CLR,,0.00,0.0,WeatherDisplay:10.37,2013-03-09 09:51:00,
2013-03-09 04:56:00,37.3,26.6,30.26,North,352,0.0,0.0,65,0.00,CLR,,0.00,0.0,WeatherDisplay:10.37,2013-03-09 09:56:00,
2013-03-09 05:01:00,37.3,26.6,30.26,North,351,0.0,1.0,65,0.00,CLR,,0.00,0.0,WeatherDisplay:10.37,2013-03-09 10:01:00,
2013-03-09 05:06:00,37.2,26.9,30.26,North,351,0.0,1.0,66,0.00,CLR,,0.00,0.0,WeatherDisplay:10.37,2013-03-09 10:06:00,
2013-03-09 05:11:00,37.2,26.9,30.26,North,351,0.0,0.0,66,0.00,CLR,,0.00,0.0,WeatherDisplay:10.37,2013-03-09 10:11:00,
2013-03-09 05:16:00,37.0,26.7,30.26,North,351,0.0,1.0,66,0.00,CLR,,0.00,0.0,WeatherDisplay:10.37,2013-03-09 10:16:00,
2013-03-09 05:21:00,37.0,26.7,30.26,North,351,0.0,0.0,66,0.00,CLR,,0.00,0.0,WeatherDisplay:10.37,2013-03-09 10:21:00,
2013-03-09 05:26:00,36.9,26.6,30.26,North,351,0.0,0.0,66,0.00,CLR,,0.00,0.0,WeatherDisplay:10.37,2013-03-09 10:26:00,
2013-03-09 05:31:00,36.8,26.9,30.26,North,351,0.0,0.0,67,0.00,CLR,,0.00,0.0,WeatherDisplay:10.37,2013-03-09 10:31:00,
2013-03-09 05:36:00,36.6,26.7,30.26,North,351,0.0,0.0,67,0.00,CLR,,0.00,0.0,WeatherDisplay:10.37,2013-03-09 10:36:00,
2013-03-09 05:41:00,36.5,26.6,30.26,North,351,0.0,0.0,67,0.00,CLR,,0.00,0.0,WeatherDisplay:10.37,2013-03-09 10:41:00,
2013-03-09 05:46:00,36.3,26.4,30.26,North,351,0.0,0.0,67,0.00,CLR,,0.00,0.0,WeatherDisplay:10.37,2013-03-09 10:46:00,
2013-03-09 05:51:00,36.2,26.6,30.26,North,351,0.0,0.0,68,0.00,CLR,,0.00,0.0,WeatherDisplay:10.37,2013-03-09 10:51:00,
2013-03-09 05:56:00,36.0,26.5,30.26,North,351,0.0,0.0,68,0.00,CLR,,0.00,0.0,WeatherDisplay:10.37,2013-03-09 10:56:00,
2013-03-09 06:01:00,36.0,26.8,30.26,North,351,0.0,0.0,69,0.00,CLR,,0.00,0.0,WeatherDisplay:10.37,2013-03-09 11:01:00,
2013-03-09 06:11:00,35.8,26.6,30.26,North,351,0.0,1.0,69,0.00,CLR,,0.00,0.0,WeatherDisplay:10.37,2013-03-09 11:11:00,
2013-03-09 06:16:00,35.6,26.8,30.26,North,351,0.0,0.0,70,0.00,CLR,,0.00,0.0,WeatherDisplay:10.37,2013-03-09 11:16:00,
2013-03-09 06:21:00,35.6,26.8,30.26,North,351,0.0,0.0,70,0.00,CLR,,0.00,0.0,WeatherDisplay:10.37,2013-03-09 11:21:00,
2013-03-09 06:26:00,35.5,26.7,30.26,North,351,0.0,0.0,70,0.00,CLR,,0.00,0.0,WeatherDisplay:10.37,2013-03-09 11:26:00,
2013-03-09 06:31:00,35.3,26.5,30.26,North,351,0.0,0.0,70,0.00,CLR,,0.00,0.0,WeatherDisplay:10.37,2013-03-09 11:31:00,
2013-03-09 06:36:00,35.3,26.5,30.26,North,351,0.0,0.0,70,0.00,CLR,,0.00,0.0,WeatherDisplay:10.37,2013-03-09 11:36:00,
2013-03-09 06:41:00,35.2,26.7,30.26,North,351,0.0,0.0,71,0.00,CLR,,0.00,5.8,WeatherDisplay:10.37,2013-03-09 11:41:00,
2013-03-09 06:46:00,35.0,26.6,30.27,North,351,0.0,0.0,71,0.00,CLR,,0.00,10.4,WeatherDisplay:10.37,2013-03-09 11:46:00,
2013-03-09 06:51:00,35.0,26.5,30.27,North,351,0.0,0.0,71,0.00,CLR,,0.00,12.6,WeatherDisplay:10.37,2013-03-09 11:51:00,
2013-03-09 06:56:00,35.0,26.9,30.27,North,351,0.0,0.0,72,0.00,CLR,,0.00,13.8,WeatherDisplay:10.37,2013-03-09 11:56:00,
2013-03-09 07:01:00,35.0,26.5,30.27,North,351,0.0,0.0,71,0.00,CLR,,0.00,16.1,WeatherDisplay:10.37,2013-03-09 12:01:00,
2013-03-09 07:11:00,35.0,26.9,30.28,North,351,0.0,0.0,72,0.00,CLR,,0.00,20.7,WeatherDisplay:10.37,2013-03-09 12:11:00,
2013-03-09 07:16:00,35.0,26.9,30.28,North,351,0.0,1.0,72,0.00,CLR,,0.00,21.8,WeatherDisplay:10.37,2013-03-09 12:16:00,
2013-03-09 07:21:00,35.2,27.0,30.28,North,351,0.0,2.0,72,0.00,CLR,,0.00,24.2,WeatherDisplay:10.37,2013-03-09 12:21:00,
2013-03-09 07:26:00,35.2,27.1,30.28,North,351,0.0,2.0,72,0.00,CLR,,0.00,26.5,WeatherDisplay:10.37,2013-03-09 12:26:00,
2013-03-09 07:31:00,35.4,27.3,30.28,North,351,0.0,2.0,72,0.00,CLR,,0.00,26.5,WeatherDisplay:10.37,2013-03-09 12:31:00,
2013-03-09 07:36:00,35.6,27.5,30.28,NW,324,0.0,2.0,72,0.00,CLR,,0.00,28.7,WeatherDisplay:10.37,2013-03-09 12:36:00,
2013-03-09 07:41:00,35.8,27.7,30.28,NW,314,0.0,0.0,72,0.00,CLR,,0.00,29.9,WeatherDisplay:10.37,2013-03-09 12:41:00,
2013-03-09 07:46:00,36.0,27.5,30.29,NNE,17,0.0,2.0,71,0.00,CLR,,0.00,29.9,WeatherDisplay:10.37,2013-03-09 12:46:00,
2013-03-09 07:51:00,36.3,27.8,30.29,NE,45,0.0,2.0,71,0.00,CLR,,0.00,29.9,WeatherDisplay:10.37,2013-03-09 12:51:00,
2013-03-09 07:56:00,36.6,28.1,30.30,NE,43,1.0,2.0,71,0.00,CLR,,0.00,32.2,WeatherDisplay:10.37,2013-03-09 12:56:00,
2013-03-09 08:01:00,36.9,28.0,30.30,NE,36,1.0,2.0,70,0.00,CLR,,0.00,32.2,WeatherDisplay:10.37,2013-03-09 13:01:00,
2013-03-09 08:06:00,37.4,28.2,30.30,NNE,24,0.0,2.0,69,0.00,CLR,,0.00,34.5,WeatherDisplay:10.37,2013-03-09 13:06:00,
2013-03-09 08:11:00,37.9,28.3,30.30,North,7,1.0,5.0,68,0.00,CLR,,0.00,34.5,WeatherDisplay:10.37,2013-03-09 13:11:00,
2013-03-09 08:16:00,38.5,28.1,30.30,North,7,1.0,5.0,66,0.00,CLR,,0.00,36.8,WeatherDisplay:10.37,2013-03-09 13:16:00,
2013-03-09 08:21:00,39.1,28.0,30.30,NNE,20,2.0,5.0,64,0.00,CLR,,0.00,36.8,WeatherDisplay:10.37,2013-03-09 13:21:00,
2013-03-09 08:26:00,39.8,28.6,30.30,NNE,26,2.0,3.0,64,0.00,CLR,,0.00,37.9,WeatherDisplay:10.37,2013-03-09 13:26:00,
2013-03-09 08:31:00,40.3,27.9,30.30,NNE,14,1.0,5.0,61,0.00,CLR,,0.00,37.9,WeatherDisplay:10.37,2013-03-09 13:31:00,
2013-03-09 08:36:00,40.9,28.1,30.31,NNE,12,3.0,7.0,60,0.00,CLR,,0.00,40.3,WeatherDisplay:10.37,2013-03-09 13:36:00,
2013-03-09 08:41:00,41.5,28.6,30.31,NNE,19,2.0,5.0,60,0.00,CLR,,0.00,40.3,WeatherDisplay:10.37,2013-03-09 13:41:00,
2013-03-09 08:46:00,41.9,27.8,30.31,NNE,27,2.0,6.0,57,0.00,CLR,,0.00,42.6,WeatherDisplay:10.37,2013-03-09 13:46:00,
2013-03-09 08:51:00,42.4,27.8,30.31,NNE,29,1.0,5.0,56,0.00,CLR,,0.00,44.8,WeatherDisplay:10.37,2013-03-09 13:51:00,
2013-03-09 08:56:00,42.9,28.3,30.31,NNE,19,2.0,6.0,56,0.00,CLR,,0.00,44.8,WeatherDisplay:10.37,2013-03-09 13:56:00,
2013-03-09 09:01:00,43.3,27.8,30.31,NNE,19,1.0,5.0,54,0.00,CLR,,0.00,46.0,WeatherDisplay:10.37,2013-03-09 14:01:00,
2013-03-09 09:06:00,43.6,27.6,30.31,NNE,31,1.0,5.0,53,0.00,CLR,,0.00,46.0,WeatherDisplay:10.37,2013-03-09 14:06:00,
2013-03-09 09:11:00,44.1,28.0,30.31,NNE,23,1.0,5.0,53,0.00,CLR,,0.00,48.3,WeatherDisplay:10.37,2013-03-09 14:11:00,
2013-03-09 09:16:00,44.3,27.8,30.31,NNE,20,1.0,3.0,52,0.00,CLR,,0.00,48.3,WeatherDisplay:10.37,2013-03-09 14:16:00,
2013-03-09 09:21:00,44.7,28.1,30.31,NNE,21,1.0,2.0,52,0.00,CLR,,0.00,48.3,WeatherDisplay:10.37,2013-03-09 14:21:00,
2013-03-09 09:26:00,45.1,28.0,30.31,NNE,19,1.0,3.0,51,0.00,CLR,,0.00,50.6,WeatherDisplay:10.37,2013-03-09 14:26:00,
2013-03-09 09:31:00,45.5,27.4,30.31,North,3,2.0,7.0,49,0.00,CLR,,0.00,66.7,WeatherDisplay:10.37,2013-03-09 14:31:00,
2013-03-09 09:36:00,45.8,28.2,30.31,North,4,2.0,6.0,50,0.00,CLR,,0.00,596.8,WeatherDisplay:10.37,2013-03-09 14:36:00,
2013-03-09 09:41:00,46.2,27.6,30.31,North,6,2.0,5.0,48,0.00,CLR,,0.00,602.6,WeatherDisplay:10.37,2013-03-09 14:41:00,
2013-03-09 09:46:00,46.5,27.8,30.31,North,4,2.0,5.0,48,0.00,CLR,,0.00,610.7,WeatherDisplay:10.37,2013-03-09 14:46:00,
2013-03-09 09:51:00,46.8,27.1,30.31,North,11,2.0,6.0,46,0.00,CLR,,0.00,632.5,WeatherDisplay:10.37,2013-03-09 14:51:00,
2013-03-09 09:56:00,47.1,27.9,30.32,NNE,14,2.0,3.0,47,0.00,CLR,,0.00,653.2,WeatherDisplay:10.37,2013-03-09 14:56:00,
2013-03-09 10:01:00,47.6,28.9,30.31,NNE,16,2.0,5.0,48,0.00,CLR,,0.00,669.3,WeatherDisplay:10.37,2013-03-09 15:01:00,
2013-03-09 10:06:00,48.0,27.7,30.31,NNE,14,3.0,6.0,45,0.00,CLR,,0.00,685.4,WeatherDisplay:10.37,2013-03-09 15:06:00,
2013-03-09 10:11:00,48.9,29.5,30.31,NNE,16,2.0,6.0,47,0.00,CLR,,0.00,701.5,WeatherDisplay:10.37,2013-03-09 15:11:00,
2013-03-09 10:16:00,49.3,27.8,30.31,NNE,21,1.0,5.0,43,0.00,CLR,,0.00,719.9,WeatherDisplay:10.37,2013-03-09 15:16:00,
2013-03-09 10:21:00,50.2,29.1,30.31,NNE,18,3.0,6.0,44,0.00,CLR,,0.00,733.7,WeatherDisplay:10.37,2013-03-09 15:21:00,
2013-03-09 10:26:00,50.5,27.7,30.31,NNE,14,3.0,6.0,41,0.00,CLR,,0.00,746.3,WeatherDisplay:10.37,2013-03-09 15:26:00,
2013-03-09 10:31:00,51.0,28.1,30.31,NNE,14,2.0,5.0,41,0.00,CLR,,0.00,760.2,WeatherDisplay:10.37,2013-03-09 15:31:00,
2013-03-09 10:36:00,51.5,29.1,30.31,NNE,12,1.0,5.0,42,0.00,CLR,,0.00,768.2,WeatherDisplay:10.37,2013-03-09 15:36:00,
2013-03-09 10:41:00,52.3,29.3,30.31,North,354,1.0,5.0,41,0.00,CLR,,0.00,784.3,WeatherDisplay:10.37,2013-03-09 15:41:00,
2013-03-09 10:46:00,52.9,27.3,30.31,North,350,1.0,5.0,37,0.00,CLR,,0.00,800.4,WeatherDisplay:10.37,2013-03-09 15:46:00,
2013-03-09 10:51:00,53.3,29.6,30.31,North,359,2.0,5.0,40,0.00,CLR,,0.00,813.1,WeatherDisplay:10.37,2013-03-09 15:51:00,
2013-03-09 10:56:00,54.2,30.4,30.31,North,8,2.0,5.0,40,0.00,CLR,,0.00,821.1,WeatherDisplay:10.37,2013-03-09 15:56:00,
2013-03-09 11:01:00,54.4,29.3,30.31,NNE,17,2.0,3.0,38,0.00,CLR,,0.00,832.6,WeatherDisplay:10.37,2013-03-09 16:01:00,
2013-03-09 11:06:00,54.7,28.9,30.31,North,11,3.0,6.0,37,0.00,CLR,,0.00,842.9,WeatherDisplay:10.37,2013-03-09 16:06:00,
2013-03-09 11:11:00,55.2,30.7,30.31,North,350,1.0,2.0,39,0.00,CLR,,0.00,851.0,WeatherDisplay:10.37,2013-03-09 16:11:00,
2013-03-09 11:16:00,56.0,30.1,30.31,WNW,296,3.0,6.0,37,0.00,CLR,,0.00,863.7,WeatherDisplay:10.37,2013-03-09 16:16:00,
2013-03-09 11:21:00,55.9,31.3,30.30,NW,305,3.0,5.0,39,0.00,CLR,,0.00,869.4,WeatherDisplay:10.37,2013-03-09 16:21:00,
2013-03-09 11:26:00,56.0,29.4,30.30,North,353,3.0,6.0,36,0.00,CLR,,0.00,877.5,WeatherDisplay:10.37,2013-03-09 16:26:00,
2013-03-09 11:31:00,55.9,27.9,30.30,North,352,3.0,6.0,34,0.00,CLR,,0.00,880.9,WeatherDisplay:10.37,2013-03-09 16:31:00,
2013-03-09 11:36:00,56.3,29.0,30.30,North,6,1.0,6.0,35,0.00,CLR,,0.00,891.3,WeatherDisplay:10.37,2013-03-09 16:36:00,
2013-03-09 11:41:00,56.3,29.7,30.30,North,11,3.0,5.0,36,0.00,CLR,,0.00,897.0,WeatherDisplay:10.37,2013-03-09 16:41:00,
2013-03-09 11:46:00,56.5,29.9,30.30,North,3,1.0,6.0,36,0.00,CLR,,0.00,903.9,WeatherDisplay:10.37,2013-03-09 16:46:00,
2013-03-09 11:51:00,57.0,27.4,30.30,NNE,13,2.0,6.0,32,0.00,CLR,,0.00,907.3,WeatherDisplay:10.37,2013-03-09 16:51:00,
2013-03-09 11:56:00,56.9,29.5,30.30,NNE,18,2.0,5.0,35,0.00,CLR,,0.00,903.9,WeatherDisplay:10.37,2013-03-09 16:56:00,
2013-03-09 12:01:00,57.4,30.7,30.30,NNE,16,2.0,3.0,36,0.00,CLR,,0.00,877.5,WeatherDisplay:10.37,2013-03-09 17:01:00,
2013-03-09 12:06:00,58.2,29.2,30.30,North,7,3.0,5.0,33,0.00,CLR,,0.00,856.7,WeatherDisplay:10.37,2013-03-09 17:06:00,
2013-03-09 12:11:00,58.3,28.5,30.30,NNE,17,1.0,3.0,32,0.00,CLR,,0.00,855.6,WeatherDisplay:10.37,2013-03-09 17:11:00,
2013-03-09 12:16:00,58.4,28.6,30.30,NNE,16,2.0,5.0,32,0.00,CLR,,0.00,880.9,WeatherDisplay:10.37,2013-03-09 17:16:00,
2013-03-09 12:21:00,58.6,28.8,30.29,North,360,1.0,5.0,32,0.00,CLR,,0.00,914.2,WeatherDisplay:10.37,2013-03-09 17:21:00,
2013-03-09 12:26:00,59.0,29.9,30.29,NNE,15,3.0,7.0,33,0.00,CLR,,0.00,922.3,WeatherDisplay:10.37,2013-03-09 17:26:00,
2013-03-09 12:31:00,59.4,30.3,30.29,NNE,27,3.0,6.0,33,0.00,CLR,,0.00,922.3,WeatherDisplay:10.37,2013-03-09 17:31:00,
2013-03-09 12:36:00,59.5,30.3,30.29,NNE,31,1.0,5.0,33,0.00,CLR,,0.00,928.1,WeatherDisplay:10.37,2013-03-09 17:36:00,
2013-03-09 12:41:00,59.5,28.8,30.28,NNE,14,5.0,7.0,31,0.00,CLR,,0.00,922.3,WeatherDisplay:10.37,2013-03-09 17:41:00,
2013-03-09 12:46:00,59.5,27.2,30.28,NNW,346,1.0,6.0,29,0.00,CLR,,0.00,915.4,WeatherDisplay:10.37,2013-03-09 17:46:00,
2013-03-09 12:51:00,59.9,28.4,30.28,North,10,2.0,5.0,30,0.00,CLR,,0.00,889.0,WeatherDisplay:10.37,2013-03-09 17:51:00,
2013-03-09 12:56:00,60.4,30.4,30.28,NNE,21,2.0,3.0,32,0.00,CLR,,0.00,855.6,WeatherDisplay:10.37,2013-03-09 17:56:00,
2013-03-09 13:01:00,60.9,28.4,30.28,NE,40,2.0,3.0,29,0.00,CLR,,0.00,808.4,WeatherDisplay:10.37,2013-03-09 18:01:00,
2013-03-09 13:06:00,60.9,28.4,30.27,ENE,63,2.0,3.0,29,0.00,CLR,,0.00,762.5,WeatherDisplay:10.37,2013-03-09 18:06:00,
2013-03-09 13:11:00,60.9,30.8,30.27,ENE,63,2.0,5.0,32,0.00,CLR,,0.00,725.7,WeatherDisplay:10.37,2013-03-09 18:11:00,
2013-03-09 13:16:00,61.0,29.3,30.26,NNE,17,3.0,5.0,30,0.00,CLR,,0.00,701.5,WeatherDisplay:10.37,2013-03-09 18:16:00,
2013-03-09 13:21:00,61.2,29.5,30.26,NNE,30,2.0,6.0,30,0.00,CLR,,0.00,693.4,WeatherDisplay:10.37,2013-03-09 18:21:00,
2013-03-09 13:26:00,60.9,27.5,30.26,NE,54,1.0,3.0,28,0.00,CLR,,0.00,695.8,WeatherDisplay:10.37,2013-03-09 18:26:00,
2013-03-09 13:31:00,61.0,28.5,30.26,NNE,33,3.0,5.0,29,0.00,CLR,,0.00,709.6,WeatherDisplay:10.37,2013-03-09 18:31:00,
2013-03-09 13:36:00,61.0,29.3,30.26,NNE,24,1.0,6.0,30,0.00,CLR,,0.00,738.3,WeatherDisplay:10.37,2013-03-09 18:36:00,
2013-03-09 13:41:00,61.3,27.0,30.26,NNE,21,3.0,6.0,27,0.00,CLR,,0.00,770.5,WeatherDisplay:10.37,2013-03-09 18:41:00,
2013-03-09 13:46:00,61.5,27.2,30.26,NE,53,1.0,5.0,27,0.00,CLR,,0.00,790.0,WeatherDisplay:10.37,2013-03-09 18:46:00,
2013-03-09 13:51:00,61.5,28.1,30.26,ENE,58,2.0,7.0,28,0.00,CLR,,0.00,813.1,WeatherDisplay:10.37,2013-03-09 18:51:00,
2013-03-09 13:56:00,61.6,26.3,30.26,NNE,29,3.0,7.0,26,0.00,CLR,,0.00,829.1,WeatherDisplay:10.37,2013-03-09 18:56:00,
2013-03-09 14:01:00,61.7,27.3,30.25,NNE,13,2.0,6.0,27,0.00,CLR,,0.00,832.6,WeatherDisplay:10.37,2013-03-09 19:01:00,
2013-03-09 14:06:00,62.0,26.7,30.25,NNE,19,2.0,6.0,26,0.00,CLR,,0.00,824.6,WeatherDisplay:10.37,2013-03-09 19:06:00,
2013-03-09 14:11:00,62.3,28.7,30.25,NNE,18,1.0,7.0,28,0.00,CLR,,0.00,814.2,WeatherDisplay:10.37,2013-03-09 19:11:00,
2013-03-09 14:16:00,62.0,27.6,30.25,NNE,25,1.0,3.0,27,0.00,CLR,,0.00,805.0,WeatherDisplay:10.37,2013-03-09 19:16:00,
2013-03-09 14:21:00,61.9,28.4,30.25,NNE,27,3.0,6.0,28,0.00,CLR,,0.00,794.7,WeatherDisplay:10.37,2013-03-09 19:21:00,
2013-03-09 14:26:00,62.3,28.7,30.25,NNE,19,3.0,6.0,28,0.00,CLR,,0.00,784.3,WeatherDisplay:10.37,2013-03-09 19:26:00,
2013-03-09 14:31:00,62.2,28.6,30.25,NNE,15,1.0,5.0,28,0.00,CLR,,0.00,770.5,WeatherDisplay:10.37,2013-03-09 19:31:00,
2013-03-09 14:36:00,62.3,27.0,30.24,NNE,25,1.0,3.0,26,0.00,CLR,,0.00,760.2,WeatherDisplay:10.37,2013-03-09 19:36:00,
2013-03-09 14:41:00,62.6,29.0,30.24,NNE,20,2.0,3.0,28,0.00,CLR,,0.00,744.0,WeatherDisplay:10.37,2013-03-09 19:41:00,
2013-03-09 14:46:00,62.7,27.3,30.24,North,354,0.0,3.0,26,0.00,CLR,,0.00,731.4,WeatherDisplay:10.37,2013-03-09 19:46:00,
2013-03-09 14:51:00,62.8,27.4,30.24,NNE,25,1.0,3.0,26,0.00,CLR,,0.00,714.2,WeatherDisplay:10.37,2013-03-09 19:51:00,
2013-03-09 14:56:00,63.2,29.5,30.24,NE,37,3.0,5.0,28,0.00,CLR,,0.00,704.9,WeatherDisplay:10.37,2013-03-09 19:56:00,
2013-03-09 15:01:00,63.4,29.7,30.24,NNE,27,2.0,3.0,28,0.00,CLR,,0.00,420.9,WeatherDisplay:10.37,2013-03-09 20:01:00,
2013-03-09 15:06:00,63.4,27.9,30.23,NNE,29,2.0,3.0,26,0.00,CLR,,0.00,88.6,WeatherDisplay:10.37,2013-03-09 20:06:00,
2013-03-09 15:11:00,63.3,28.7,30.23,NNE,19,2.0,3.0,27,0.00,CLR,,0.00,69.0,WeatherDisplay:10.37,2013-03-09 20:11:00,
2013-03-09 15:16:00,63.1,28.5,30.23,NNE,15,2.0,3.0,27,0.00,CLR,,0.00,58.7,WeatherDisplay:10.37,2013-03-09 20:16:00,
2013-03-09 15:21:00,62.9,26.5,30.23,North,354,1.0,2.0,25,0.00,CLR,,0.00,69.0,WeatherDisplay:10.37,2013-03-09 20:21:00,
2013-03-09 15:26:00,62.9,27.5,30.23,NW,326,1.0,3.0,26,0.00,CLR,,0.00,111.6,WeatherDisplay:10.37,2013-03-09 20:26:00,
2013-03-09 15:31:00,62.7,27.3,30.23,NNW,348,2.0,5.0,26,0.00,CLR,,0.00,61.0,WeatherDisplay:10.37,2013-03-09 20:31:00,
2013-03-09 15:36:00,62.6,26.2,30.23,North,1,1.0,5.0,25,0.00,CLR,,0.00,69.0,WeatherDisplay:10.37,2013-03-09 20:36:00,
2013-03-09 15:41:00,62.4,27.0,30.23,North,8,1.0,3.0,26,0.00,CLR,,0.00,61.0,WeatherDisplay:10.37,2013-03-09 20:41:00,
2013-03-09 15:46:00,62.3,26.9,30.23,North,8,1.0,3.0,26,0.00,CLR,,0.00,66.7,WeatherDisplay:10.37,2013-03-09 20:46:00,
2013-03-09 15:51:00,62.3,27.9,30.23,North,3,2.0,5.0,27,0.00,CLR,,0.00,62.1,WeatherDisplay:10.37,2013-03-09 20:51:00,
2013-03-09 15:56:00,62.3,27.9,30.22,NNE,13,2.0,5.0,27,0.00,CLR,,0.00,71.3,WeatherDisplay:10.37,2013-03-09 20:56:00,
2013-03-09 16:01:00,62.3,26.9,30.22,NE,48,0.0,2.0,26,0.00,CLR,,0.00,52.9,WeatherDisplay:10.37,2013-03-09 21:01:00,
2013-03-09 16:06:00,62.1,27.7,30.22,NE,42,2.0,5.0,27,0.00,CLR,,0.00,74.8,WeatherDisplay:10.37,2013-03-09 21:06:00,
2013-03-09 16:11:00,62.1,27.7,30.22,NNW,330,1.0,3.0,27,0.00,CLR,,0.00,52.9,WeatherDisplay:10.37,2013-03-09 21:11:00,
2013-03-09 16:16:00,62.1,26.8,30.22,NNW,331,2.0,3.0,26,0.00,CLR,,0.00,66.7,WeatherDisplay:10.37,2013-03-09 21:16:00,
2013-03-09 16:21:00,62.1,26.8,30.22,NNE,25,2.0,3.0,26,0.00,CLR,,0.00,146.1,WeatherDisplay:10.37,2013-03-09 21:21:00,
2013-03-09 16:26:00,62.1,26.8,30.22,North,350,2.0,4.0,26,0.00,CLR,,0.00,58.7,WeatherDisplay:10.37,2013-03-09 21:26:00,
2013-03-09 16:31:00,62.0,25.8,30.22,NNW,339,0.0,5.0,25,0.00,CLR,,0.00,85.1,WeatherDisplay:10.37,2013-03-09 21:31:00,
2013-03-09 16:36:00,62.0,26.7,30.22,NNW,348,1.0,2.0,26,0.00,CLR,,0.00,71.3,WeatherDisplay:10.37,2013-03-09 21:36:00,
2013-03-09 16:41:00,62.1,28.6,30.22,NNW,348,0.0,1.0,28,0.00,CLR,,0.00,123.1,WeatherDisplay:10.37,2013-03-09 21:41:00,
2013-03-09 16:46:00,62.1,29.4,30.22,North,356,1.0,2.0,29,0.00,CLR,,0.00,171.4,WeatherDisplay:10.37,2013-03-09 21:46:00,
2013-03-09 16:51:00,62.1,27.7,30.22,North,9,1.0,2.0,27,0.00,CLR,,0.00,101.2,WeatherDisplay:10.37,2013-03-09 21:51:00,
2013-03-09 16:56:00,62.0,27.6,30.22,NNE,12,1.0,2.0,27,0.00,CLR,,0.00,135.7,WeatherDisplay:10.37,2013-03-09 21:56:00,
2013-03-09 17:01:00,62.0,26.7,30.22,NNE,28,0.0,3.0,26,0.00,CLR,,0.00,44.8,WeatherDisplay:10.37,2013-03-09 22:01:00,
2013-03-09 17:11:00,61.8,27.4,30.22,NNE,28,1.0,3.0,27,0.00,CLR,,0.00,119.6,WeatherDisplay:10.37,2013-03-09 22:11:00,
2013-03-09 17:16:00,61.6,28.1,30.22,NNE,17,1.0,2.0,28,0.00,CLR,,0.00,52.9,WeatherDisplay:10.37,2013-03-09 22:16:00,
2013-03-09 17:21:00,61.4,28.8,30.23,NNE,15,0.0,2.0,29,0.00,CLR,,0.00,50.6,WeatherDisplay:10.37,2013-03-09 22:21:00,
2013-03-09 17:26:00,61.2,27.8,30.23,NNE,15,0.0,0.0,28,0.00,CLR,,0.00,36.8,WeatherDisplay:10.37,2013-03-09 22:26:00,
2013-03-09 17:31:00,61.0,27.7,30.23,NNE,15,0.0,1.0,28,0.00,CLR,,0.00,34.5,WeatherDisplay:10.37,2013-03-09 22:31:00,
2013-03-09 17:36:00,60.9,28.4,30.23,NNE,15,0.0,0.0,29,0.00,CLR,,0.00,26.5,WeatherDisplay:10.37,2013-03-09 22:36:00,
2013-03-09 17:41:00,60.7,27.3,30.23,NNE,15,0.0,0.0,28,0.00,CLR,,0.00,24.2,WeatherDisplay:10.37,2013-03-09 22:41:00,
2013-03-09 17:46:00,60.4,29.6,30.23,NNE,15,0.0,0.0,31,0.00,CLR,,0.00,21.8,WeatherDisplay:10.37,2013-03-09 22:46:00,
2013-03-09 17:51:00,60.1,28.5,30.23,NNE,15,0.0,0.0,30,0.00,CLR,,0.00,20.7,WeatherDisplay:10.37,2013-03-09 22:51:00,
2013-03-09 17:56:00,59.9,29.2,30.23,NNE,15,0.0,0.0,31,0.00,CLR,,0.00,16.1,WeatherDisplay:10.37,2013-03-09 22:56:00,
2013-03-09 18:01:00,59.6,28.9,30.23,NNE,15,0.0,0.0,31,0.00,CLR,,0.00,12.6,WeatherDisplay:10.37,2013-03-09 23:01:00,
2013-03-09 18:06:00,59.3,28.6,30.23,NNE,15,0.0,0.0,31,0.00,CLR,,0.00,10.4,WeatherDisplay:10.37,2013-03-09 23:06:00,
2013-03-09 18:11:00,58.9,28.3,30.24,NNE,15,0.0,0.0,31,0.00,CLR,,0.00,8.0,WeatherDisplay:10.37,2013-03-09 23:11:00,
2013-03-09 18:16:00,58.4,30.1,30.24,NNE,15,0.0,0.0,34,0.00,CLR,,0.00,0.0,WeatherDisplay:10.37,2013-03-09 23:16:00,
2013-03-09 18:21:00,58.0,31.2,30.24,NNE,15,0.0,0.0,36,0.00,CLR,,0.00,0.0,WeatherDisplay:10.37,2013-03-09 23:21:00,
2013-03-09 18:26:00,57.4,33.3,30.24,NNE,15,0.0,0.0,40,0.00,CLR,,0.00,0.0,WeatherDisplay:10.37,2013-03-09 23:26:00,
2013-03-09 18:31:00,56.8,33.4,30.24,NNE,15,0.0,0.0,41,0.00,CLR,,0.00,0.0,WeatherDisplay:10.37,2013-03-09 23:31:00,
2013-03-09 18:41:00,55.7,33.5,30.25,NNE,15,0.0,0.0,43,0.00,CLR,,0.00,0.0,WeatherDisplay:10.37,2013-03-09 23:41:00,
2013-03-09 18:46:00,55.3,34.3,30.25,NNE,15,0.0,0.0,45,0.00,CLR,,0.00,0.0,WeatherDisplay:10.37,2013-03-09 23:46:00,
2013-03-09 18:51:00,54.7,34.8,30.25,NNE,15,0.0,0.0,47,0.00,CLR,,0.00,0.0,WeatherDisplay:10.37,2013-03-09 23:51:00,
2013-03-09 18:56:00,54.4,34.5,30.25,NNE,15,0.0,0.0,47,0.00,CLR,,0.00,0.0,WeatherDisplay:10.37,2013-03-09 23:56:00,
2013-03-09 19:01:00,53.8,35.1,30.25,NNE,15,0.0,0.0,49,0.00,CLR,,0.00,0.0,WeatherDisplay:10.37,2013-03-10 00:01:00,
2013-03-09 19:06:00,53.2,35.0,30.25,NNE,15,0.0,0.0,50,0.00,CLR,,0.00,0.0,WeatherDisplay:10.37,2013-03-10 00:06:00,
2013-03-09 19:11:00,52.8,35.1,30.25,NNE,15,0.0,0.0,51,0.00,CLR,,0.00,0.0,WeatherDisplay:10.37,2013-03-10 00:11:00,
2013-03-09 19:16:00,52.2,35.1,30.25,NNE,15,0.0,0.0,52,0.00,CLR,,0.00,0.0,WeatherDisplay:10.37,2013-03-10 00:16:00,
2013-03-09 19:21:00,51.7,35.6,30.25,NNE,15,0.0,0.0,54,0.00,CLR,,0.00,0.0,WeatherDisplay:10.37,2013-03-10 00:21:00,
2013-03-09 19:26:00,51.3,34.3,30.26,NNE,15,0.0,0.0,52,0.00,CLR,,0.00,0.0,WeatherDisplay:10.37,2013-03-10 00:26:00,
2013-03-09 19:31:00,50.8,34.3,30.26,NNE,15,0.0,0.0,53,0.00,CLR,,0.00,0.0,WeatherDisplay:10.37,2013-03-10 00:31:00,
2013-03-09 19:36:00,50.2,35.1,30.26,NNE,15,0.0,0.0,56,0.00,CLR,,0.00,0.0,WeatherDisplay:10.37,2013-03-10 00:36:00,
2013-03-09 19:41:00,49.7,35.1,30.26,NNE,15,0.0,0.0,57,0.00,CLR,,0.00,0.0,WeatherDisplay:10.37,2013-03-10 00:41:00,
2013-03-09 19:46:00,49.3,34.7,30.26,NNE,15,0.0,0.0,57,0.00,CLR,,0.00,0.0,WeatherDisplay:10.37,2013-03-10 00:46:00,
2013-03-09 19:51:00,48.9,34.3,30.26,NNE,15,0.0,0.0,57,0.00,CLR,,0.00,0.0,WeatherDisplay:10.37,2013-03-10 00:51:00,
2013-03-09 19:56:00,48.5,34.8,30.26,NNE,15,0.0,0.0,59,0.00,CLR,,0.00,0.0,WeatherDisplay:10.37,2013-03-10 00:56:00,
2013-03-09 20:01:00,48.0,34.3,30.26,NNE,15,0.0,0.0,59,0.00,CLR,,0.00,0.0,WeatherDisplay:10.37,2013-03-10 01:01:00,
2013-03-09 20:06:00,47.7,33.6,30.26,NNE,15,0.0,0.0,58,0.00,CLR,,0.00,0.0,WeatherDisplay:10.37,2013-03-10 01:06:00,
2013-03-09 20:11:00,47.4,34.2,30.26,NNE,15,0.0,0.0,60,0.00,CLR,,0.00,0.0,WeatherDisplay:10.37,2013-03-10 01:11:00,
2013-03-09 20:16:00,47.2,34.0,30.26,NNE,15,0.0,0.0,60,0.00,CLR,,0.00,0.0,WeatherDisplay:10.37,2013-03-10 01:16:00,
2013-03-09 20:21:00,47.0,33.8,30.26,NNE,15,0.0,0.0,60,0.00,CLR,,0.00,0.0,WeatherDisplay:10.37,2013-03-10 01:21:00,
2013-03-09 20:26:00,46.5,33.4,30.26,NNE,15,0.0,0.0,60,0.00,CLR,,0.00,0.0,WeatherDisplay:10.37,2013-03-10 01:26:00,
2013-03-09 20:31:00,46.3,33.6,30.26,NNE,15,0.0,0.0,61,0.00,CLR,,0.00,0.0,WeatherDisplay:10.37,2013-03-10 01:31:00,
2013-03-09 20:36:00,46.0,33.7,30.26,NNE,15,0.0,0.0,62,0.00,CLR,,0.00,0.0,WeatherDisplay:10.37,2013-03-10 01:36:00,
2013-03-09 20:41:00,45.7,33.8,30.26,NNE,15,0.0,0.0,63,0.00,CLR,,0.00,0.0,WeatherDisplay:10.37,2013-03-10 01:41:00,
2013-03-09 20:46:00,45.4,33.6,30.26,NNE,15,0.0,0.0,63,0.00,CLR,,0.00,0.0,WeatherDisplay:10.37,2013-03-10 01:46:00,
2013-03-09 20:51:00,45.2,33.3,30.26,NNE,15,0.0,0.0,63,0.00,CLR,,0.00,0.0,WeatherDisplay:10.37,2013-03-10 01:51:00,
2013-03-09 20:56:00,44.9,33.5,30.26,NNE,15,0.0,0.0,64,0.00,CLR,,0.00,0.0,WeatherDisplay:10.37,2013-03-10 01:56:00,
2013-03-09 21:01:00,44.7,33.6,30.26,NNE,15,0.0,0.0,65,0.00,CLR,,0.00,0.0,WeatherDisplay:10.37,2013-03-10 02:01:00,
2013-03-09 21:06:00,44.5,33.5,30.26,NNE,15,0.0,0.0,65,0.00,CLR,,0.00,0.0,WeatherDisplay:10.37,2013-03-10 02:06:00,
2013-03-09 21:11:00,44.2,33.2,30.26,NNE,15,0.0,0.0,65,0.00,CLR,,0.00,0.0,WeatherDisplay:10.37,2013-03-10 02:11:00,
2013-03-09 21:16:00,44.1,33.8,30.26,NNE,15,0.0,0.0,67,0.00,CLR,,0.00,0.0,WeatherDisplay:10.37,2013-03-10 02:16:00,
2013-03-09 21:21:00,43.9,34.0,30.26,NNE,15,0.0,0.0,68,0.00,CLR,,0.00,0.0,WeatherDisplay:10.37,2013-03-10 02:21:00,
2013-03-09 21:26:00,43.6,33.7,30.26,NNE,15,0.0,0.0,68,0.00,CLR,,0.00,0.0,WeatherDisplay:10.37,2013-03-10 02:26:00,
2013-03-09 21:31:00,43.4,33.2,30.26,NNE,15,0.0,0.0,67,0.00,CLR,,0.00,0.0,WeatherDisplay:10.37,2013-03-10 02:31:00,
2013-03-09 21:36:00,43.2,33.0,30.26,NNE,15,0.0,0.0,67,0.00,CLR,,0.00,0.0,WeatherDisplay:10.37,2013-03-10 02:36:00,
2013-03-09 21:46:00,42.8,32.6,30.27,NNE,15,0.0,0.0,67,0.00,CLR,,0.00,0.0,WeatherDisplay:10.37,2013-03-10 02:46:00,
2013-03-09 21:51:00,42.6,33.5,30.26,NNE,15,0.0,0.0,70,0.00,CLR,,0.00,0.0,WeatherDisplay:10.37,2013-03-10 02:51:00,
2013-03-09 21:56:00,42.3,33.9,30.27,NNE,15,0.0,0.0,72,0.00,CLR,,0.00,0.0,WeatherDisplay:10.37,2013-03-10 02:56:00,
2013-03-09 22:01:00,42.2,33.5,30.27,NNE,15,0.0,0.0,71,0.00,CLR,,0.00,0.0,WeatherDisplay:10.37,2013-03-10 03:01:00,
2013-03-09 22:06:00,42.1,33.4,30.27,NNE,15,0.0,0.0,71,0.00,CLR,,0.00,0.0,WeatherDisplay:10.37,2013-03-10 03:06:00,
2013-03-09 22:11:00,41.9,33.5,30.27,NNE,15,0.0,0.0,72,0.00,CLR,,0.00,0.0,WeatherDisplay:10.37,2013-03-10 03:11:00,
2013-03-09 22:16:00,41.8,33.8,30.27,NNE,15,0.0,0.0,73,0.00,CLR,,0.00,0.0,WeatherDisplay:10.37,2013-03-10 03:16:00,
2013-03-09 22:21:00,41.6,34.3,30.27,NNE,15,0.0,0.0,75,0.00,CLR,,0.00,0.0,WeatherDisplay:10.37,2013-03-10 03:21:00,
2013-03-09 22:26:00,41.6,34.9,30.27,NNE,15,0.0,0.0,77,0.00,CLR,,0.00,0.0,WeatherDisplay:10.37,2013-03-10 03:26:00,
2013-03-09 22:36:00,41.2,34.2,30.27,NNE,15,0.0,0.0,76,0.00,CLR,,0.00,0.0,WeatherDisplay:10.37,2013-03-10 03:36:00,
2013-03-09 22:41:00,41.1,33.8,30.27,NNE,15,0.0,0.0,75,0.00,CLR,,0.00,0.0,WeatherDisplay:10.37,2013-03-10 03:41:00,
2013-03-09 22:46:00,41.0,34.0,30.27,NNE,15,0.0,0.0,76,0.00,CLR,,0.00,0.0,WeatherDisplay:10.37,2013-03-10 03:46:00,
2013-03-09 22:51:00,40.8,33.8,30.27,NNE,15,0.0,0.0,76,0.00,CLR,,0.00,0.0,WeatherDisplay:10.37,2013-03-10 03:51:00,
2013-03-09 22:56:00,40.6,33.3,30.27,NNE,15,0.0,0.0,75,0.00,CLR,,0.00,0.0,WeatherDisplay:10.37,2013-03-10 03:56:00,
2013-03-09 23:01:00,40.5,33.2,30.27,NNE,15,0.0,0.0,75,0.00,CLR,,0.00,0.0,WeatherDisplay:10.37,2013-03-10 04:01:00,
2013-03-09 23:06:00,40.2,33.3,30.27,NNE,15,0.0,0.0,76,0.00,CLR,,0.00,0.0,WeatherDisplay:10.37,2013-03-10 04:06:00,
2013-03-09 23:11:00,40.1,33.2,30.27,NNE,15,0.0,0.0,76,0.00,CLR,,0.00,0.0,WeatherDisplay:10.37,2013-03-10 04:11:00,
2013-03-09 23:16:00,40.1,33.8,30.27,NNE,15,0.0,0.0,78,0.00,CLR,,0.00,0.0,WeatherDisplay:10.37,2013-03-10 04:16:00,
2013-03-09 23:21:00,39.9,33.9,30.27,NNE,15,0.0,0.0,79,0.00,CLR,,0.00,0.0,WeatherDisplay:10.37,2013-03-10 04:21:00,
2013-03-09 23:26:00,39.9,33.9,30.27,NNE,15,0.0,0.0,79,0.00,CLR,,0.00,0.0,WeatherDisplay:10.37,2013-03-10 04:26:00,
2013-03-09 23:31:00,39.6,33.6,30.27,NNE,15,0.0,0.0,79,0.00,CLR,,0.00,0.0,WeatherDisplay:10.37,2013-03-10 04:31:00,
2013-03-09 23:36:00,39.5,33.5,30.27,NNE,15,0.0,0.0,79,0.00,CLR,,0.00,0.0,WeatherDisplay:10.37,2013-03-10 04:36:00,
2013-03-09 23:41:00,39.3,33.0,30.27,NNE,15,0.0,0.0,78,0.00,CLR,,0.00,0.0,WeatherDisplay:10.37,2013-03-10 04:41:00,
2013-03-09 23:46:00,39.2,32.9,30.28,NNE,15,0.0,0.0,78,0.00,CLR,,0.00,0.0,WeatherDisplay:10.37,2013-03-10 04:46:00,
2013-03-09 23:51:00,39.1,33.1,30.28,NNE,15,0.0,0.0,79,0.00,CLR,,0.00,0.0,WeatherDisplay:10.37,2013-03-10 04:51:00,
2013-03-09 23:56:00,38.9,33.3,30.28,NNE,15,0.0,0.0,80,0.00,CLR,,0.00,0.0,WeatherDisplay:10.37,2013-03-10 04:56:00,